Temp
61 53 48 53 56 58 57 56 55 59 65 60 57 58 59 60 60 58 57 59 62 62 65 64 63 61 60 59 58 57 58 56 55 53 52 51 51 51 52 54 57 57 56 57
55 49 59 63 62 61 59 55 54 60 63 61 56 57 62 60 61 62 61 61 62 63 60 62 61 59 58 58 58 57 58 57 55 53 52 51 50 51 52 53 55 56 56 57
50 59 67 64 61 60 58 55 53 55 59 60 55 50 55 63 64 65 64 65 65 64 62 61 59 59 57 56 57 56 56 57 55 55 53 52 51 50 50 51 52 54 56 56
56 66 65 60 60 61 52 61 61 59 52 43 54 44 51 60 61 62 63 61 62 64 66 62 60 58 58 57 56 58 57 56 56 55 52 50 48 47 48 49 50 52 55 55
55 59 58 57 60 63 56 62 58 57 50 44 47 42 46 56 56 60 62 62 62 65 64 61 60 60 59 59 56 56 56 56 56 53 52 50 48 48 49 49 51 51 52 54
57 65 62 62 64 64 62 58 55 51 46 36 46 45 53 52 61 61 60 63 64 64 65 63 62 61 59 59 57 55 55 55 55 53 52 51 49 49 48 48 48 48 49 50
54 58 62 66 56 58 57 48 37 35 33 35 51 46 55 58 62 64 65 61 62 64 63 59 58 58 58 56 56 56 55 53 53 53 53 52 50 50 49 49 47 47 48 48
43 44 57 62 60 52 51 50 38 31 32 42 49 41 53 64 71 66 66 63 59 60 63 61 60 59 58 58 57 58 54 53 53 53 52 52 53 49 49 49 48 48 48 48
46 48 61 62 62 62 50 47 56 43 43 37 44 49 58 60 59 59 60 59 58 59 59 59 59 59 58 58 57 57 55 54 54 53 52 52 52 51 49 50 49 48 49 52
54 48 60 61 61 59 54 55 43 41 33 30 40 42 47 57 65 58 56 57 57 58 56 57 59 58 58 58 57 57 57 55 55 53 53 53 51 52 51 50 49 49 49 50
60 50 53 53 50 52 49 50 48 47 40 33 35 39 54 61 61 56 60 57 57 57 58 58 58 58 57 58 57 57 56 56 54 55 53 52 51 52 51 50 50 50 50 50
60 54 48 53 55 60 59 55 55 43 37 43 47 48 59 61 61 60 58 60 57 58 57 57 56 56 57 57 57 58 57 56 56 54 52 51 52 51 49 49 49 50 49 50
51 49 44 48 48 50 48 54 54 56 45 46 43 48 63 68 65 59 60 58 59 59 56 56 54 56 57 57 56 56 56 56 55 53 51 51 51 49 48 48 49 50 49 50
54 49 47 42 49 51 45 50 54 51 45 47 48 52 55 56 57 58 57 58 59 60 59 57 57 57 57 57 56 56 54 55 53 52 50 49 49 49 49 49 49 49 50 49
45 39 42 41 43 46 50 54 53 50 52 47 52 52 58 61 59 58 59 59 56 57 57 57 56 56 56 55 57 56 55 54 53 52 50 49 49 49 49 48 49 49 49 50
45 34 36 34 40 40 38 44 47 54 55 54 55 55 60 63 60 58 58 61 58 59 59 59 60 58 56 57 56 57 55 54 53 50 49 50 50 49 48 48 48 47 47 47
39 37 34 29 40 37 31 42 48 52 58 57 49 57 61 63 64 66 62 58 60 61 60 60 59 58 59 58 57 55 55 53 52 50 50 50 50 49 48 49 47 46 45 45
38 36 36 29 34 25 43 53 53 52 56 60 60 62 59 63 65 63 62 58 61 63 61 61 60 58 58 55 55 54 54 53 51 49 49 49 49 49 48 47 45 44 44 44
43 38 33 30 31 38 44 50 49 41 41 55 57 62 58 60 58 60 63 60 60 59 58 60 59 55 54 54 54 54 51 50 49 48 48 49 49 47 46 45 43 44 43 43
43 40 35 34 28 25 42 48 52 48 37 45 45 49 50 55 49 59 62 62 58 58 56 54 54 54 54 52 53 52 49 48 47 48 49 49 48 47 45 44 43 43 43 44
31 31 30 31 30 34 46 51 50 35 35 43 44 46 47 45 56 64 62 58 57 57 54 55 55 54 52 52 52 49 47 46 48 50 50 48 47 46 46 44 43 42 42 43
30 28 27 28 27 24 47 47 40 42 43 44 44 45 46 49 51 54 55 56 55 53 53 54 52 51 52 52 52 47 46 48 49 49 48 47 46 48 50 44 42 42 41 40
27 35 31 32 34 45 49 48 50 47 46 46 45 46 49 49 51 51 50 52 53 52 52 53 51 49 50 50 51 46 47 48 49 47 46 45 47 46 45 42 42 41 41 40
37 39 34 34 42 43 46 51 53 51 48 52 49 48 49 50 52 51 50 51 52 52 50 51 51 49 47 48 49 49 48 49 48 45 44 44 43 44 43 44 43 41 40 39
38 36 35 34 41 44 47 49 51 51 52 55 54 51 48 48 51 54 52 51 50 50 50 52 52 50 49 49 49 49 49 49 47 45 44 43 44 42 42 42 42 43 42 41
40 37 31 33 44 42 45 50 53 52 53 55 54 53 51 50 50 53 51 51 50 50 51 51 51 51 51 50 49 49 49 49 47 45 43 42 42 41 41 40 41 48 50 51
MSLP
1013.51 1013.91 1013.65 1013.40 1013.43 1012.99 1012.98 1012.99 1012.71 1011.92 1011.30 1012.22 1012.68 1012.46 1012.66 1012.87 1013.32 1013.42 1013.60 1013.77 1013.85 1013.86 1014.10 1014.96 1015.59 1016.10 1016.82 1017.31 1017.84 1018.30 1018.70 1019.00 1019.21 1019.72 1020.29 1020.61 1020.85 1020.81 1020.78 1020.60 1020.44 1020.39 1020.47 1020.43
1013.88 1013.39 1012.79 1012.83 1012.90 1012.87 1012.62 1012.57 1012.16 1011.52 1011.25 1011.89 1012.06 1011.89 1011.76 1011.87 1011.69 1011.25 1011.49 1012.16 1012.41 1013.04 1013.56 1014.24 1014.97 1015.56 1016.21 1016.85 1017.47 1017.92 1018.31 1018.69 1019.05 1019.40 1019.92 1020.25 1020.53 1020.57 1020.47 1020.44 1020.32 1020.19 1020.22 1020.19
1013.14 1012.10 1011.57 1012.13 1012.18 1012.12 1012.14 1012.01 1011.88 1011.90 1011.75 1011.95 1012.23 1011.66 1011.21 1010.01 1009.86 1009.74 1010.04 1010.08 1010.79 1011.19 1012.12 1013.17 1014.11 1014.78 1015.56 1016.30 1016.88 1017.46 1017.87 1018.23 1018.71 1019.10 1019.62 1020.05 1020.26 1020.38 1020.51 1020.38 1020.24 1020.09 1020.00 1019.90
1012.24 1011.27 1011.21 1011.32 1011.41 1011.32 1011.25 1011.15 1011.53 1011.96 1012.51 1012.66 1012.41 1010.98 1010.46 1009.43 1008.77 1008.62 1008.38 1009.09 1009.29 1010.08 1010.97 1012.01 1013.09 1014.02 1014.71 1015.46 1016.20 1016.69 1017.21 1017.80 1018.27 1018.68 1019.27 1019.78 1020.15 1020.51 1020.41 1020.19 1020.08 1020.00 1019.67 1019.59
1011.11 1010.49 1010.48 1010.49 1010.26 1010.50 1010.85 1011.00 1011.60 1012.09 1012.56 1012.97 1012.52 1012.58 1009.34 1008.77 1008.25 1007.18 1006.78 1007.11 1007.97 1008.65 1009.60 1010.71 1011.75 1012.73 1013.79 1014.65 1015.38 1016.06 1016.62 1017.21 1017.70 1018.20 1018.71 1019.31 1019.82 1019.93 1019.78 1019.81 1019.79 1019.72 1019.55 1019.41
1011.29 1010.39 1010.03 1009.63 1009.98 1010.21 1010.78 1011.43 1012.18 1012.81 1013.63 1013.42 1012.44 1012.38 1006.97 1007.90 1006.51 1005.54 1005.32 1005.92 1006.80 1007.82 1008.68 1009.78 1010.92 1012.14 1013.11 1013.99 1014.75 1015.50 1016.20 1016.69 1017.14 1017.71 1018.24 1018.70 1019.31 1019.57 1019.64 1019.69 1019.76 1019.61 1019.50 1019.36
1010.78 1009.95 1009.55 1009.37 1010.16 1010.63 1010.94 1012.08 1013.40 1014.04 1014.35 1012.29 1011.39 1011.13 1006.80 1005.93 1005.20 1004.74 1004.64 1005.12 1005.93 1006.95 1008.11 1009.23 1010.40 1011.44 1012.45 1013.38 1014.12 1014.79 1015.47 1016.22 1016.75 1017.19 1017.64 1018.12 1018.57 1018.83 1019.08 1019.21 1019.36 1019.41 1019.32 1019.14
1011.29 1009.69 1008.94 1008.57 1008.63 1009.34 1010.32 1011.07 1012.38 1013.06 1013.35 1011.93 1010.56 1008.95 1005.87 1004.37 1003.41 1003.89 1004.02 1004.14 1005.36 1006.58 1007.42 1008.35 1009.26 1010.30 1011.40 1012.40 1013.26 1013.99 1014.82 1015.60 1016.22 1016.64 1017.09 1017.53 1017.79 1018.13 1018.35 1018.46 1018.65 1018.70 1018.74 1018.59
1010.59 1008.71 1007.52 1007.09 1007.44 1008.34 1009.72 1010.21 1010.01 1011.34 1011.61 1011.58 1009.34 1007.27 1005.23 1004.30 1004.14 1004.31 1004.05 1004.62 1005.45 1006.18 1006.98 1007.68 1008.64 1009.45 1010.49 1011.44 1012.32 1013.17 1014.09 1014.84 1015.53 1016.00 1016.52 1016.92 1017.19 1017.58 1017.85 1017.95 1018.07 1018.12 1018.09 1018.06
1009.44 1008.73 1007.92 1007.12 1007.62 1007.67 1008.14 1008.84 1010.38 1011.09 1011.52 1010.81 1007.73 1006.20 1004.28 1003.55 1003.49 1003.68 1004.70 1004.74 1005.24 1005.76 1006.68 1007.44 1008.14 1008.85 1009.73 1010.59 1011.62 1012.57 1013.23 1013.99 1014.70 1015.29 1015.82 1016.23 1016.64 1016.93 1017.21 1017.45 1017.60 1017.71 1017.70 1017.59
1008.89 1008.91 1007.44 1007.83 1007.25 1007.02 1008.10 1008.31 1008.85 1009.20 1009.13 1008.50 1006.79 1004.41 1002.66 1002.18 1002.32 1003.01 1003.45 1004.09 1004.81 1005.37 1006.05 1006.84 1007.72 1008.34 1009.04 1009.94 1010.86 1011.74 1012.58 1013.30 1013.97 1014.58 1015.12 1015.63 1016.15 1016.42 1016.70 1016.97 1017.09 1017.16 1017.16 1017.06
1009.23 1008.58 1006.90 1006.69 1006.39 1006.48 1006.52 1006.28 1006.99 1007.42 1007.62 1007.21 1005.48 1001.95 1001.47 1001.25 1001.39 1001.95 1002.84 1003.57 1004.10 1004.70 1005.48 1006.26 1007.10 1007.93 1008.60 1009.28 1010.18 1010.90 1011.81 1012.54 1013.15 1013.78 1014.45 1015.17 1015.56 1015.97 1016.34 1016.56 1016.62 1016.68 1016.72 1016.54
1011.79 1009.61 1008.20 1006.55 1006.75 1006.71 1006.46 1006.66 1006.54 1006.33 1006.35 1005.29 1003.97 1000.99 1001.21 1001.40 1001.38 1001.68 1002.05 1002.72 1003.40 1004.18 1005.12 1005.78 1006.70 1007.31 1007.88 1008.60 1009.44 1010.27 1011.02 1011.76 1012.49 1013.22 1014.03 1014.70 1015.18 1015.60 1015.96 1016.12 1016.16 1016.15 1016.09 1015.98
1013.07 1011.57 1010.56 1009.13 1007.30 1006.80 1006.40 1006.03 1005.72 1005.87 1005.46 1002.81 1002.15 1000.66 1001.28 1001.29 1001.32 1001.26 1001.52 1001.92 1002.70 1003.37 1003.88 1004.83 1005.89 1006.38 1007.02 1007.77 1008.63 1009.48 1010.34 1011.05 1011.90 1012.73 1013.51 1014.23 1014.80 1015.13 1015.33 1015.43 1015.60 1015.62 1015.48 1015.42
1014.57 1013.24 1012.18 1011.06 1010.51 1009.31 1007.42 1004.98 1004.25 1003.86 1002.61 1002.30 1000.31 1000.36 999.75 1000.58 1000.92 1000.98 1000.80 1001.50 1002.38 1002.91 1003.49 1004.00 1004.77 1005.49 1006.27 1007.12 1007.89 1008.73 1009.56 1010.46 1011.25 1012.18 1013.03 1013.67 1014.12 1014.44 1014.72 1014.93 1015.05 1014.95 1014.91 1014.81
1014.98 1014.56 1014.29 1012.23 1011.66 1010.20 1008.99 1006.65 1005.25 1002.56 1001.39 1000.34 999.95 998.30 999.50 999.51 999.70 1000.18 1000.54 1000.80 1001.22 1001.77 1002.25 1002.93 1003.70 1004.60 1005.27 1005.97 1006.94 1007.88 1008.88 1009.80 1010.64 1011.59 1012.46 1013.12 1013.63 1013.95 1014.25 1014.45 1014.49 1014.46 1014.50 1014.45
1014.94 1014.57 1014.19 1012.62 1011.60 1010.76 1008.69 1007.06 1004.59 1002.86 1001.08 1000.14 999.34 997.09 999.56 998.75 999.05 998.76 999.32 1000.03 1000.34 1000.64 1001.18 1001.88 1002.47 1003.14 1004.11 1005.04 1005.94 1007.07 1008.13 1009.17 1010.13 1011.13 1011.94 1012.53 1013.04 1013.54 1013.81 1013.89 1014.05 1014.25 1014.29 1014.09
1013.75 1013.96 1014.40 1012.66 1011.87 1009.23 1006.19 1005.29 1004.55 1002.86 1001.40 1000.07 998.80 997.99 998.42 997.76 997.68 997.68 997.72 998.55 999.18 999.44 999.95 1000.72 1001.68 1002.62 1003.54 1004.55 1005.56 1006.58 1007.63 1008.68 1009.73 1010.65 1011.37 1011.99 1012.55 1012.92 1013.21 1013.50 1013.86 1014.00 1013.86 1013.77
1012.52 1013.27 1013.25 1012.28 1010.30 1007.91 1006.10 1004.42 1003.90 1004.48 1003.18 1002.76 1000.57 998.76 998.20 997.38 997.40 996.99 996.71 997.25 997.63 998.20 998.77 999.66 1000.61 1001.97 1003.16 1004.22 1005.26 1006.33 1007.56 1008.49 1009.44 1010.34 1011.04 1011.59 1012.02 1012.45 1012.82 1013.19 1013.41 1013.45 1013.46 1013.25
1012.00 1012.68 1013.20 1011.91 1010.30 1007.75 1005.84 1004.41 1004.54 1004.19 1003.17 1004.10 1003.98 1002.46 1001.66 999.24 997.84 995.43 996.03 996.34 996.80 997.41 998.23 999.36 1000.47 1001.78 1003.04 1004.29 1005.13 1006.29 1007.49 1008.53 1009.46 1010.09 1010.61 1011.09 1011.57 1012.07 1012.37 1012.64 1012.86 1012.84 1012.77 1012.60
1012.77 1012.23 1011.91 1011.03 1009.84 1008.11 1005.28 1004.46 1004.54 1004.93 1006.02 1005.46 1005.08 1004.65 1003.33 1001.50 999.18 995.37 995.18 996.12 996.61 997.44 998.50 999.55 1000.44 1001.58 1002.90 1004.16 1005.14 1006.42 1007.43 1008.32 1008.97 1009.64 1010.25 1010.72 1011.09 1011.52 1011.80 1012.11 1012.19 1012.26 1012.28 1012.06
1013.50 1013.27 1012.17 1010.48 1009.46 1007.93 1006.25 1005.65 1006.38 1006.48 1006.28 1006.03 1005.56 1005.88 1003.30 1001.30 998.77 996.98 995.95 996.39 996.94 997.94 998.95 999.91 1000.99 1002.08 1003.07 1003.98 1005.04 1006.36 1007.31 1008.03 1008.76 1009.39 1009.93 1010.38 1010.78 1011.03 1011.22 1011.67 1011.77 1011.75 1011.71 1011.64
1012.37 1011.87 1011.03 1010.34 1008.68 1006.85 1006.00 1006.12 1005.75 1005.86 1005.75 1005.01 1005.20 1005.31 1003.65 1002.35 1000.10 998.97 997.88 997.82 998.00 998.66 999.79 1000.28 1001.11 1002.38 1003.39 1004.22 1005.09 1006.38 1007.27 1007.94 1008.61 1009.15 1009.53 1009.94 1010.42 1010.68 1010.90 1011.24 1011.20 1011.22 1011.16 1011.15
1010.60 1010.48 1010.40 1009.88 1007.28 1006.73 1005.97 1005.22 1004.82 1004.58 1004.58 1003.97 1004.08 1003.92 1003.48 1002.86 1000.88 1000.04 1000.07 999.50 999.32 999.51 1000.31 1001.11 1001.35 1002.71 1003.83 1004.52 1005.30 1006.14 1006.97 1007.62 1008.22 1008.82 1009.22 1009.62 1010.07 1010.38 1010.58 1010.60 1010.64 1010.67 1010.62 1010.64
1010.70 1010.10 1009.62 1009.08 1007.00 1006.64 1005.43 1004.54 1004.01 1003.69 1003.53 1002.60 1002.34 1003.02 1002.70 1002.48 1001.97 1000.72 1000.18 1000.24 1000.54 1000.24 1000.89 1001.36 1001.75 1002.92 1003.90 1004.60 1005.36 1006.08 1006.76 1007.31 1007.94 1008.55 1008.96 1009.34 1009.68 1009.95 1010.14 1010.16 1010.20 1010.01 1009.86 1009.85
1009.62 1008.84 1009.04 1007.33 1006.02 1006.24 1004.60 1003.92 1003.58 1003.01 1002.51 1001.59 1001.15 1001.12 1001.38 1002.12 1001.77 1000.65 1000.03 999.88 1000.31 1000.77 1000.92 1001.37 1002.25 1002.93 1003.86 1004.45 1005.32 1005.93 1006.50 1007.01 1007.57 1008.27 1008.71 1009.04 1009.33 1009.52 1009.70 1009.77 1009.69 1009.36 1009.27 1009.21
Wind_Speed
5 3 9 11 10 7 3 4 6 6 7 9 15 15 14 13 10 13 15 16 19 19 15 12 11 9 9 8 8 8 8 6 5 3 3 2 1 1 1 2 3 2 2 3
2 9 11 10 10 12 12 9 7 7 3 9 8 19 15 11 18 22 22 19 19 14 13 15 14 11 10 9 9 8 8 7 5 4 3 3 2 3 3 2 3 3 3 5
8 9 9 11 9 8 12 8 4 6 2 4 5 9 9 14 14 16 20 19 20 21 19 18 17 15 11 10 10 9 9 9 7 7 3 2 1 2 2 1 2 3 4 5
9 15 13 6 7 7 8 4 5 7 3 5 5 13 6 11 13 11 19 18 20 18 16 17 18 17 15 12 9 9 9 9 8 9 5 5 4 4 3 3 3 4 4 5
10 5 7 8 11 7 7 4 3 3 3 2 3 3 6 7 8 13 17 21 19 20 19 20 22 20 16 13 10 9 10 9 8 8 8 6 4 4 3 2 3 3 5 4
9 4 6 9 2 3 8 4 4 5 3 6 8 8 20 8 16 8 6 13 19 18 17 15 17 17 15 12 11 9 10 8 8 8 9 8 8 6 3 3 3 4 3 3
4 11 4 5 4 2 3 7 2 3 1 12 11 10 24 8 9 9 8 10 15 17 15 14 18 17 15 15 14 11 11 8 9 9 8 8 8 8 8 6 4 4 2 2
6 8 14 10 17 11 12 12 10 9 7 10 6 10 11 16 21 8 10 9 10 14 15 16 18 17 17 17 16 14 13 9 9 9 8 7 8 5 5 6 5 4 3 4
5 10 6 8 8 18 8 13 12 3 3 2 7 9 9 4 4 7 9 9 12 13 14 16 15 16 16 16 16 16 14 11 10 9 7 8 7 6 6 7 5 4 4 4
8 16 12 7 2 5 9 7 4 3 6 8 9 8 9 11 20 11 8 11 11 10 10 12 14 14 13 14 13 14 14 14 11 10 8 7 7 7 6 5 5 5 6 5
16 8 15 2 6 16 5 9 5 5 8 8 10 9 11 17 12 14 18 11 13 13 13 13 12 11 12 12 14 14 14 13 11 11 8 7 7 6 5 5 5 6 5 7
9 12 20 28 10 11 16 13 23 9 5 8 15 18 4 9 10 11 13 14 11 12 12 12 12 12 13 14 14 15 13 13 12 11 8 8 7 6 5 5 6 5 6 6
9 8 12 13 3 2 7 13 8 19 2 18 18 17 11 16 14 10 13 12 12 13 13 11 11 14 14 13 13 13 13 13 11 9 8 7 7 6 6 5 6 6 6 7
10 7 16 17 18 7 8 12 19 15 13 25 22 28 10 6 7 7 9 10 13 15 17 14 12 15 14 14 13 12 11 12 10 8 8 8 7 7 6 6 6 6 6 7
6 8 11 21 23 20 21 21 27 26 30 23 28 26 25 19 13 13 10 10 9 11 13 15 15 14 14 13 13 12 12 12 10 9 8 8 7 7 6 6 6 7 7 7
2 7 16 25 23 25 27 29 26 27 31 31 32 33 7 12 9 8 12 13 15 15 17 17 16 14 16 16 15 14 14 12 10 9 8 7 7 7 7 6 7 6 6 6
6 4 4 12 20 18 21 18 27 25 24 22 24 35 13 20 18 19 11 12 15 14 17 18 19 18 16 16 16 15 14 11 11 10 8 7 7 7 6 6 5 4 5 5
16 14 7 9 11 15 14 16 22 24 29 27 25 26 15 19 18 11 12 11 16 17 16 17 15 13 13 11 12 12 13 12 11 8 7 7 7 6 5 3 3 4 4 6
18 12 6 7 12 17 21 13 17 13 20 27 26 20 11 13 5 13 9 10 13 12 12 14 13 12 11 13 12 13 10 10 9 8 7 7 6 5 4 4 5 5 5 6
0 11 10 11 10 5 12 12 6 13 16 20 26 24 24 16 5 21 12 9 9 10 9 13 13 11 13 10 13 14 11 10 8 8 7 6 6 6 6 5 6 5 5 6
3 5 14 14 13 8 17 15 8 4 9 18 22 28 28 21 17 16 9 7 8 10 12 12 15 14 13 12 13 12 10 9 8 7 6 6 7 6 6 5 4 5 6 6
9 5 5 5 6 10 9 7 8 5 9 15 22 27 29 26 21 9 6 13 13 15 15 14 13 13 12 13 13 11 9 7 7 7 6 7 6 4 4 6 5 5 5 5
7 10 6 8 8 17 21 23 6 4 13 18 12 19 24 21 16 13 5 7 10 12 10 12 14 13 10 10 11 10 8 8 7 7 7 5 5 5 5 5 6 4 4 4
8 6 8 4 18 14 13 19 20 6 15 15 17 16 16 17 12 7 8 5 6 9 9 8 15 13 10 8 9 9 8 7 7 7 6 4 4 5 5 4 4 4 4 4
8 3 7 9 22 14 14 11 11 11 15 17 11 13 6 12 16 7 3 2 2 6 6 9 12 11 11 9 8 8 8 8 7 6 5 4 3 4 4 4 4 4 5 5
8 17 6 13 20 12 20 21 21 18 20 20 15 13 10 10 14 12 6 7 7 7 8 9 9 11 10 9 7 7 7 7 7 5 4 4 3 3 2 3 5 8 3 7
Wind_Direction
216 144 210 210 209 222 224 210 235 263 237 165 217 228 226 209 204 215 215 209 212 211 201 182 181 169 168 169 164 165 159 164 135 112 109 90 167 267 275 264 230 283 280 295
302 232 229 221 223 227 245 257 266 296 199 175 236 241 242 203 216 214 212 213 215 207 187 186 177 171 170 174 182 186 175 153 148 132 150 152 171 215 229 241 248 265 255 268
189 230 227 217 252 204 232 217 236 234 319 263 278 282 241 250 232 225 224 217 211 204 192 187 182 178 172 179 188 181 177 161 158 152 137 119 64 17 6 307 300 273 250 270
233 233 234 199 230 202 235 192 235 244 132 240 152 283 276 283 268 220 224 207 210 202 196 184 182 181 181 186 181 179 163 165 170 163 156 159 171 193 221 216 229 269 274 287
237 167 178 197 211 192 233 154 163 206 207 336 207 305 255 253 275 266 223 212 206 199 188 184 186 183 182 179 176 176 169 169 169 168 165 168 182 203 220 239 258 280 293 283
231 278 185 198 126 193 154 100 45 33 83 272 171 184 274 220 237 254 238 195 201 194 192 182 180 173 178 180 174 165 168 179 172 163 173 176 192 208 215 241 252 268 257 285
262 239 217 164 138 21 159 100 297 292 183 238 183 206 250 263 248 217 197 208 192 188 178 164 171 178 175 179 179 173 172 180 172 172 180 188 197 205 212 223 223 224 251 267
202 287 174 196 200 186 198 164 171 202 207 259 195 231 250 221 246 220 205 184 160 172 178 176 175 174 178 179 178 177 173 174 175 179 190 195 203 204 214 218 209 217 222 237
241 255 214 200 178 172 195 213 207 291 168 297 226 266 299 278 234 217 181 159 174 178 179 179 175 174 173 177 178 175 174 180 181 184 183 197 207 205 210 219 218 227 241 237
234 276 253 245 165 241 158 168 104 197 213 227 247 233 230 226 234 215 210 196 187 180 175 177 180 176 175 174 172 177 178 184 186 184 186 195 197 202 202 213 236 240 248 251
235 210 255 134 226 188 189 218 219 176 167 190 254 250 206 220 217 200 204 198 188 188 185 182 183 180 171 170 174 179 183 183 184 184 187 183 190 198 213 220 230 239 257 267
275 235 245 237 213 202 231 225 206 199 252 246 250 253 254 194 188 179 199 201 200 189 183 181 177 172 175 177 179 184 185 184 186 183 175 180 184 197 214 230 247 254 258 268
339 309 276 255 310 312 221 230 225 238 87 232 238 254 217 255 268 222 195 198 192 188 181 178 167 181 186 184 179 181 182 183 176 170 168 177 188 191 214 227 249 266 263 268
327 255 269 279 262 198 197 217 221 214 233 246 242 259 247 261 244 205 208 191 188 193 188 181 182 190 187 183 179 178 175 171 168 166 167 175 186 196 210 232 248 252 261 267
32 292 315 318 318 320 309 235 218 215 227 230 251 243 244 237 235 231 212 194 189 187 180 187 188 189 183 178 181 175 172 171 166 166 168 183 191 202 218 232 246 257 261 267
211 271 299 287 298 317 314 303 294 229 233 239 246 257 176 230 229 229 225 212 195 197 192 194 193 187 184 183 181 176 173 174 167 165 173 180 189 202 219 236 250 262 274 282
265 241 257 266 273 281 293 297 285 292 254 240 237 247 184 235 240 244 238 207 205 197 197 193 194 190 185 182 173 175 171 161 160 161 174 182 185 200 218 237 258 267 272 267
250 257 251 264 273 244 242 241 270 276 276 272 255 255 204 226 233 229 221 192 211 208 196 194 188 182 176 163 163 154 158 159 159 164 170 173 185 199 218 222 239 261 263 273
219 242 257 258 272 279 288 256 280 4 311 324 301 267 210 221 176 254 211 192 194 192 181 182 173 160 155 154 154 149 145 148 146 157 166 176 182 197 185 210 244 259 254 267
70 210 232 263 261 281 308 265 269 7 267 7 347 338 342 321 181 251 184 197 183 167 152 148 146 142 142 145 141 138 143 141 151 159 171 183 191 180 193 223 247 246 239 251
284 270 232 249 269 277 264 300 354 11 337 342 347 332 325 329 278 280 186 152 144 144 133 132 140 144 142 138 135 137 140 154 160 159 179 187 182 186 201 232 225 243 255 263
287 284 281 282 208 260 28 330 341 12 323 318 326 317 304 308 323 298 164 139 138 132 133 132 129 135 138 137 134 143 153 161 161 173 180 185 187 201 211 228 257 259 255 267
246 198 235 183 238 261 298 286 275 229 315 301 292 291 294 299 316 332 18 99 121 121 127 136 133 132 134 136 140 145 173 158 170 170 179 182 202 222 234 233 259 270 259 253
237 228 247 315 267 272 299 286 274 260 258 283 262 257 296 294 305 338 342 29 112 114 121 138 127 133 138 139 141 157 160 163 155 168 179 193 203 237 248 256 251 241 255 233
265 294 269 263 282 303 286 290 310 287 270 297 288 256 269 320 313 273 180 87 41 115 118 138 130 142 149 144 148 157 158 149 153 164 178 198 214 238 257 256 245 250 248 193
246 253 229 259 270 265 279 287 284 290 285 284 284 266 220 239 273 291 229 176 161 160 143 133 142 145 152 144 154 156 152 152 159 171 182 203 210 241 248 254 283 302 299 271